TimeCDT,TemperatureF,Dew PointF,Humidity,Sea Level PressureIn,VisibilityMPH,Wind Direction,Wind SpeedMPH,Gust SpeedMPH,PrecipitationIn,Events,Conditions,WindDirDegrees,DateUTC
12:06 AM,57.2,57.2,100,30.16,0.5,Calm,Calm,-,N/A,Fog,Fog,0,2012-10-05 05:06:00
12:53 AM,57.0,55.9,96,30.18,0.2,Calm,Calm,-,N/A,Fog,Fog,0,2012-10-05 05:53:00
1:17 AM,57.2,55.4,94,30.17,2.5,Calm,Calm,-,N/A,,Clear,0,2012-10-05 06:17:00
1:24 AM,57.2,55.4,94,30.17,5.0,Calm,Calm,-,N/A,,Clear,0,2012-10-05 06:24:00
1:37 AM,57.2,57.2,100,30.16,1.8,Calm,Calm,-,N/A,,Clear,0,2012-10-05 06:37:00
1:46 AM,57.2,55.4,94,30.16,3.0,Calm,Calm,-,N/A,,Clear,0,2012-10-05 06:46:00
1:53 AM,57.9,55.9,93,30.18,7.0,Calm,Calm,-,N/A,,Clear,0,2012-10-05 06:53:00
3:53 AM,57.0,55.9,96,30.17,7.0,Calm,Calm,-,N/A,,Clear,0,2012-10-05 08:53:00
4:53 AM,57.0,55.0,93,30.17,6.0,Calm,Calm,-,N/A,,Clear,0,2012-10-05 09:53:00
5:53 AM,55.9,54.0,93,30.17,5.0,Calm,Calm,-,N/A,,Clear,0,2012-10-05 10:53:00
6:53 AM,55.0,54.0,96,30.17,5.0,Calm,Calm,-,N/A,,Clear,0,2012-10-05 11:53:00
7:53 AM,63.0,61.0,93,30.17,6.0,Calm,Calm,-,N/A,,Clear,0,2012-10-05 12:53:00
8:53 AM,66.9,63.0,87,30.19,9.0,Calm,Calm,-,N/A,,Overcast,0,2012-10-05 13:53:00
9:53 AM,73.0,64.0,73,30.19,10.0,South,5.8,-,N/A,,Partly Cloudy,180,2012-10-05 14:53:00
10:53 AM,77.0,64.0,64,30.17,10.0,Variable,3.5,-,N/A,,Clear,0,2012-10-05 15:53:00
11:53 AM,82.0,64.9,56,30.14,10.0,South,5.8,-,N/A,,Clear,190,2012-10-05 16:53:00
12:53 PM,84.0,62.1,47,30.12,10.0,Variable,4.6,-,N/A,,Clear,0,2012-10-05 17:53:00
1:53 PM,84.0,62.1,47,30.09,10.0,Variable,6.9,-,N/A,,Scattered Clouds,0,2012-10-05 18:53:00
2:53 PM,84.0,62.1,47,30.07,10.0,Variable,4.6,-,N/A,,Partly Cloudy,0,2012-10-05 19:53:00
3:53 PM,84.9,63.0,48,30.04,10.0,South,8.1,-,N/A,,Clear,180,2012-10-05 20:53:00
4:53 PM,82.9,63.0,51,30.03,10.0,Variable,4.6,-,N/A,,Clear,0,2012-10-05 21:53:00
5:53 PM,81.0,63.0,54,30.02,10.0,South,4.6,-,N/A,,Clear,190,2012-10-05 22:53:00
6:53 PM,71.1,66.0,84,30.02,10.0,South,3.5,-,N/A,,Clear,180,2012-10-05 23:53:00
7:53 PM,64.9,63.0,93,30.02,10.0,Calm,Calm,-,N/A,,Clear,0,2012-10-06 00:53:00
8:53 PM,64.0,62.1,93,30.03,6.0,Calm,Calm,-,N/A,,Clear,0,2012-10-06 01:53:00
9:53 PM,63.0,62.1,97,30.04,4.0,Calm,Calm,-,N/A,,Clear,0,2012-10-06 02:53:00
10:53 PM,62.1,60.1,93,30.04,4.0,Calm,Calm,-,N/A,,Clear,0,2012-10-06 03:53:00
11:37 PM,62.6,60.8,94,30.01,2.5,Calm,Calm,-,N/A,,Clear,0,2012-10-06 04:37:00
11:53 PM,62.1,61.0,96,30.03,1.5,Calm,Calm,-,N/A,,Clear,0,2012-10-06 04:53:00